| time (UTC) | temp C | wind direction | speed KPH | gust KPH | rain 1hr cm | rain 24hr cm | rain mn cm | humidity % | barometer mb |
| 20260503200405 | 10 | 101 | 1.6 | 4.8 | 0.00 | 0.05 | 0.00 | 89 | 1033.3 |
| 20260503195906 | 10 | 118 | 1.6 | 4.8 | 0.00 | 0.05 | 0.00 | 89 | 1033.3 |
| 20260503195405 | 10 | 106 | 3.2 | 4.8 | 0.00 | 0.05 | 0.00 | 89 | 1033.1 |
| 20260503194406 | 10 | 109 | 3.2 | 4.8 | 0.00 | 0.05 | 0.00 | 89 | 1033.0 |
| 20260503193905 | 10 | 97 | 4.8 | 9.7 | 0.00 | 0.05 | 0.00 | 89 | 1033.0 |
| 20260503193405 | 10 | 93 | 4.8 | 11.3 | 0.00 | 0.05 | 0.00 | 89 | 1033.0 |
| 20260503192907 | 10 | 94 | 4.8 | 9.7 | 0.00 | 0.05 | 0.00 | 89 | 1032.9 |
| 20260503192406 | 10 | 77 | 3.2 | 9.7 | 0.00 | 0.05 | 0.00 | 90 | 1032.9 |
| 20260503191904 | 10 | 86 | 3.2 | 4.8 | 0.00 | 0.05 | 0.00 | 90 | 1032.9 |
| 20260503191405 | 10 | 86 | 3.2 | 4.8 | 0.00 | 0.05 | 0.00 | 90 | 1032.9 |
| 20260503190905 | 10 | 80 | 1.6 | 3.2 | 0.00 | 0.05 | 0.00 | 90 | 1032.9 |
| 20260503185905 | 10 | 83 | 1.6 | 3.2 | 0.00 | 0.05 | 0.00 | 90 | 1032.8 |
| 20260503183906 | 10 | 90 | 3.2 | 4.8 | 0.00 | 0.05 | 0.00 | 90 | 1032.7 |
| 20260503183406 | 10 | 88 | 4.8 | 4.8 | 0.00 | 0.05 | 0.00 | 90 | 1032.7 |
| 20260503182905 | 10 | 101 | 4.8 | 9.7 | 0.00 | 0.05 | 0.00 | 91 | 1032.7 |
| 20260503182405 | 10 | 91 | 3.2 | 4.8 | 0.00 | 0.05 | 0.00 | 91 | 1032.7 |
| 20260503181905 | 10 | 96 | 3.2 | 4.8 | 0.00 | 0.05 | 0.00 | 91 | 1032.7 |
| 20260503180905 | 10 | 104 | 1.6 | 4.8 | 0.00 | 0.05 | 0.00 | 90 | 1032.7 |
| 20260503180405 | 10 | 101 | 3.2 | 4.8 | 0.00 | 0.05 | 0.00 | 91 | 1032.7 |
| 20260503175406 | 9 | 216 | 0.0 | 1.6 | 0.00 | 0.05 | 0.00 | 90 | 1032.5 |
| 20260503174905 | 9 | 216 | 0.0 | 1.6 | 0.00 | 0.05 | 0.00 | 90 | 1032.5 |
| 20260503174406 | 9 | 216 | 0.0 | 1.6 | 0.00 | 0.05 | 0.00 | 90 | 1032.5 |
| 20260503173905 | 10 | 216 | 0.0 | 0.0 | 0.00 | 0.05 | 0.00 | 90 | 1032.5 |
| 20260503173406 | 10 | 216 | 0.0 | 1.6 | 0.00 | 0.05 | 0.00 | 90 | 1032.5 |
| 20260503172905 | 10 | 216 | 0.0 | 1.6 | 0.00 | 0.05 | 0.00 | 90 | 1032.6 |
| 20260503172406 | 10 | 157 | 0.0 | 1.6 | 0.00 | 0.05 | 0.00 | 90 | 1032.7 |
| 20260503171906 | 10 | 157 | 0.0 | 1.6 | 0.00 | 0.05 | 0.00 | 90 | 1032.7 |
| 20260503171405 | 10 | 154 | 0.0 | 1.6 | 0.00 | 0.05 | 0.00 | 90 | 1032.8 |
| 20260503170906 | 10 | 154 | 0.0 | 1.6 | 0.00 | 0.05 | 0.00 | 90 | 1032.8 |
| 20260503170405 | 10 | 153 | 0.0 | 1.6 | 0.00 | 0.05 | 0.00 | 90 | 1032.8 |
| 20260503150906 | 10 | 340 | 0.0 | 0.0 | 0.00 | 0.05 | 0.00 | 90 | 1033.3 |
| 20260503150405 | 10 | 341 | 0.0 | 0.0 | 0.00 | 0.05 | 0.00 | 90 | 1033.4 |
| 20260503131406 | 11 | 144 | 0.0 | 0.0 | 0.00 | 0.08 | 0.00 | 90 | 1033.4 |
| 20260503130905 | 11 | 144 | 0.0 | 0.0 | 0.00 | 0.08 | 0.00 | 90 | 1033.4 |
| 20260503130405 | 11 | 144 | 0.0 | 1.6 | 0.00 | 0.08 | 0.00 | 90 | 1033.5 |
| 20260503110405 | 11 | 102 | 0.0 | 1.6 | 0.00 | 0.05 | 0.05 | 89 | 1033.3 |
| 20260503090404 | 11 | 102 | 0.0 | 1.6 | 0.00 | 0.05 | 0.05 | 88 | 1032.2 |
| 20260503081406 | 11 | 102 | 0.0 | 0.0 | 0.00 | 0.05 | 0.05 | 87 | 1032.1 |
| 20260503080404 | 11 | 102 | 0.0 | 0.0 | 0.00 | 0.05 | 0.05 | 86 | 1032.2 |
| 20260503072906 | 12 | 102 | 0.0 | 0.0 | 0.00 | 0.05 | 0.05 | 85 | 1032.0 |
| 20260503072405 | 12 | 102 | 0.0 | 1.6 | 0.00 | 0.05 | 0.05 | 84 | 1031.9 |
| 20260503071904 | 12 | 95 | 0.0 | 1.6 | 0.00 | 0.05 | 0.05 | 83 | 1031.9 |
| 20260503070906 | 12 | 79 | 0.0 | 1.6 | 0.00 | 0.05 | 0.05 | 83 | 1032.0 |
| 20260503054905 | 13 | 359 | 0.0 | 3.2 | 0.03 | 0.05 | 0.05 | 80 | 1032.0 |
| 20260503054404 | 13 | 359 | 0.0 | 1.6 | 0.03 | 0.05 | 0.05 | 80 | 1032.1 |
| 20260503053905 | 13 | 359 | 0.0 | 3.2 | 0.03 | 0.05 | 0.05 | 80 | 1032.0 |
| 20260503053404 | 14 | 348 | 1.6 | 3.2 | 0.03 | 0.05 | 0.05 | 79 | 1032.1 |
| 20260503052905 | 14 | 234 | 1.6 | 3.2 | 0.03 | 0.05 | 0.05 | 79 | 1032.0 |
| 20260503052405 | 15 | 215 | 0.0 | 4.8 | 0.03 | 0.05 | 0.05 | 79 | 1032.0 |
| 20260503051906 | 15 | 190 | 1.6 | 4.8 | 0.03 | 0.05 | 0.05 | 79 | 1032.0 |
| 20260503051405 | 15 | 222 | 0.0 | 4.8 | 0.03 | 0.05 | 0.05 | 79 | 1032.0 |
| 20260503045904 | 15 | 346 | 3.2 | 12.9 | 0.00 | 0.03 | 0.03 | 78 | 1032.2 |
| 20260503044904 | 15 | 317 | 3.2 | 8.0 | 0.00 | 0.03 | 0.03 | 77 | 1032.3 |
| 20260503044404 | 16 | 329 | 4.8 | 14.5 | 0.00 | 0.03 | 0.03 | 77 | 1032.3 |
| 20260503043904 | 16 | 301 | 4.8 | 12.9 | 0.00 | 0.03 | 0.03 | 76 | 1032.3 |
| 20260503043404 | 16 | 345 | 4.8 | 9.7 | 0.00 | 0.03 | 0.03 | 77 | 1032.3 |
| 20260503042904 | 16 | 334 | 3.2 | 14.5 | 0.00 | 0.03 | 0.03 | 77 | 1032.3 |
| 20260503042404 | 16 | 352 | 6.4 | 12.9 | 0.00 | 0.03 | 0.03 | 76 | 1032.3 |
| 20260503041904 | 16 | 302 | 4.8 | 9.7 | 0.00 | 0.03 | 0.03 | 76 | 1032.4 |
| 20260503041404 | 16 | 331 | 4.8 | 14.5 | 0.00 | 0.03 | 0.03 | 76 | 1032.4 |
| 20260503040905 | 16 | 336 | 4.8 | 16.1 | 0.00 | 0.03 | 0.03 | 76 | 1032.4 |
| 20260503040404 | 16 | 344 | 4.8 | 14.5 | 0.00 | 0.03 | 0.03 | 76 | 1032.4 |
| 20260503035904 | 16 | 318 | 8.0 | 16.1 | 0.00 | 0.03 | 0.03 | 76 | 1032.4 |
| 20260503034904 | 16 | 341 | 8.0 | 16.1 | 0.00 | 0.03 | 0.03 | 75 | 1032.4 |
| 20260503034404 | 16 | 313 | 4.8 | 16.1 | 0.00 | 0.03 | 0.03 | 74 | 1032.4 |
| 20260503033904 | 16 | 299 | 4.8 | 16.1 | 0.00 | 0.03 | 0.03 | 75 | 1032.5 |
| 20260503033404 | 16 | 322 | 6.4 | 12.9 | 0.00 | 0.03 | 0.03 | 74 | 1032.4 |
| 20260503032904 | 16 | 337 | 4.8 | 16.1 | 0.00 | 0.03 | 0.03 | 75 | 1032.4 |
| 20260503032404 | 16 | 338 | 8.0 | 14.5 | 0.00 | 0.03 | 0.03 | 74 | 1032.5 |
| 20260503031404 | 16 | 343 | 4.8 | 14.5 | 0.00 | 0.03 | 0.03 | 75 | 1032.5 |
| 20260503030904 | 16 | 323 | 4.8 | 14.5 | 0.00 | 0.03 | 0.03 | 75 | 1032.6 |
| 20260503030404 | 16 | 341 | 4.8 | 12.9 | 0.00 | 0.03 | 0.03 | 75 | 1032.7 |
| 20260503025904 | 16 | 336 | 8.0 | 16.1 | 0.00 | 0.03 | 0.03 | 75 | 1032.8 |
| 20260503025406 | 16 | 340 | 4.8 | 14.5 | 0.00 | 0.03 | 0.03 | 75 | 1032.8 |
| 20260503024904 | 17 | 343 | 8.0 | 16.1 | 0.00 | 0.03 | 0.03 | 74 | 1032.8 |
| 20260503024405 | 17 | 329 | 8.0 | 16.1 | 0.00 | 0.03 | 0.03 | 74 | 1032.9 |
| 20260503023905 | 17 | 327 | 4.8 | 11.3 | 0.00 | 0.03 | 0.03 | 74 | 1032.9 |
| 20260503023406 | 17 | 338 | 6.4 | 12.9 | 0.00 | 0.03 | 0.03 | 72 | 1032.9 |
| 20260503022904 | 17 | 356 | 4.8 | 14.5 | 0.00 | 0.03 | 0.03 | 73 | 1032.9 |
| 20260503022404 | 17 | 358 | 6.4 | 14.5 | 0.00 | 0.03 | 0.03 | 73 | 1033.0 |
| 20260503021904 | 17 | 342 | 6.4 | 14.5 | 0.00 | 0.03 | 0.03 | 74 | 1033.0 |
| 20260503021404 | 17 | 339 | 4.8 | 12.9 | 0.00 | 0.03 | 0.03 | 74 | 1033.0 |
| 20260503020904 | 17 | 318 | 3.2 | 8.0 | 0.00 | 0.03 | 0.03 | 75 | 1033.0 |
| 20260503020404 | 17 | 330 | 6.4 | 12.9 | 0.00 | 0.03 | 0.03 | 75 | 1033.1 |
| 20260503015905 | 17 | 347 | 4.8 | 14.5 | 0.00 | 0.03 | 0.03 | 76 | 1033.1 |
| 20260503015404 | 17 | 344 | 4.8 | 12.9 | 0.00 | 0.03 | 0.03 | 76 | 1033.2 |
| 20260503014904 | 17 | 357 | 3.2 | 14.5 | 0.00 | 0.03 | 0.03 | 77 | 1033.2 |
| 20260503014404 | 16 | 350 | 8.0 | 19.3 | 0.00 | 0.03 | 0.03 | 77 | 1033.3 |
| 20260503013904 | 16 | 345 | 6.4 | 12.9 | 0.00 | 0.03 | 0.03 | 76 | 1033.3 |
| 20260503013404 | 17 | 318 | 6.4 | 16.1 | 0.00 | 0.03 | 0.03 | 76 | 1033.4 |
| 20260503012904 | 17 | 305 | 4.8 | 12.9 | 0.00 | 0.03 | 0.03 | 76 | 1033.4 |
| 20260503011905 | 17 | 330 | 4.8 | 11.3 | 0.00 | 0.03 | 0.03 | 74 | 1033.5 |
| 20260503011404 | 17 | 334 | 3.2 | 11.3 | 0.00 | 0.03 | 0.03 | 75 | 1033.6 |
| 20260503010904 | 17 | 332 | 4.8 | 11.3 | 0.00 | 0.03 | 0.03 | 75 | 1033.6 |
| 20260503005904 | 16 | 341 | 4.8 | 14.5 | 0.00 | 0.03 | 0.03 | 76 | 1033.7 |
| 20260503005404 | 16 | 312 | 4.8 | 12.9 | 0.00 | 0.03 | 0.03 | 75 | 1033.8 |
| 20260503004904 | 16 | 329 | 3.2 | 11.3 | 0.00 | 0.03 | 0.03 | 75 | 1033.9 |
| 20260503004404 | 16 | 318 | 4.8 | 9.7 | 0.00 | 0.03 | 0.03 | 75 | 1034.0 |
| 20260503003904 | 16 | 277 | 4.8 | 9.7 | 0.00 | 0.03 | 0.03 | 76 | 1034.1 |
| 20260503003404 | 16 | 282 | 3.2 | 12.9 | 0.00 | 0.03 | 0.03 | 76 | 1034.2 |
| 20260503002904 | 16 | 326 | 4.8 | 12.9 | 0.00 | 0.03 | 0.03 | 76 | 1034.3 |
| 20260503002404 | 16 | 348 | 3.2 | 14.5 | 0.00 | 0.03 | 0.03 | 77 | 1034.3 |
| 20260503001904 | 16 | 345 | 3.2 | 11.3 | 0.00 | 0.03 | 0.03 | 77 | 1034.4 |
| 20260503001404 | 16 | 309 | 4.8 | 12.9 | 0.00 | 0.03 | 0.03 | 77 | 1034.5 |
| 20260503000404 | 17 | 343 | 3.2 | 9.7 | 0.00 | 0.03 | 0.03 | 77 | 1034.6 |
| 20260502235904 | 16 | 303 | 3.2 | 9.7 | 0.00 | 0.03 | 0.03 | 78 | 1034.7 |
| 20260502235404 | 17 | 300 | 3.2 | 8.0 | 0.00 | 0.03 | 0.03 | 77 | 1034.7 |
| 20260502234904 | 16 | 343 | 3.2 | 4.8 | 0.00 | 0.03 | 0.03 | 77 | 1034.7 |
| 20260502233904 | 16 | 274 | 3.2 | 4.8 | 0.00 | 0.03 | 0.03 | 78 | 1034.8 |
| 20260502232905 | 16 | 346 | 1.6 | 4.8 | 0.00 | 0.03 | 0.03 | 78 | 1034.9 |
| 20260502232406 | 16 | 350 | 3.2 | 8.0 | 0.00 | 0.03 | 0.03 | 79 | 1034.9 |
| 20260502231904 | 16 | 342 | 4.8 | 4.8 | 0.00 | 0.03 | 0.03 | 78 | 1035.0 |
| 20260502231404 | 16 | 344 | 1.6 | 4.8 | 0.00 | 0.03 | 0.03 | 79 | 1034.9 |
| 20260502230904 | 16 | 351 | 3.2 | 4.8 | 0.00 | 0.03 | 0.03 | 77 | 1034.9 |
| 20260502230404 | 16 | 357 | 0.0 | 3.2 | 0.00 | 0.03 | 0.03 | 78 | 1035.0 |
| 20260502225904 | 16 | 358 | 0.0 | 1.6 | 0.00 | 0.03 | 0.03 | 78 | 1034.9 |
| 20260502225404 | 16 | 359 | 1.6 | 3.2 | 0.00 | 0.03 | 0.03 | 79 | 1035.0 |
| 20260502224904 | 16 | 359 | 0.0 | 3.2 | 0.00 | 0.03 | 0.03 | 79 | 1035.1 |
| 20260502224405 | 15 | 359 | 1.6 | 3.2 | 0.00 | 0.03 | 0.03 | 81 | 1035.1 |
| 20260502223904 | 15 | 13 | 1.6 | 3.2 | 0.00 | 0.03 | 0.03 | 83 | 1035.2 |
| 20260502223406 | 15 | 0 | 1.6 | 4.8 | 0.00 | 0.03 | 0.03 | 84 | 1035.2 |
| 20260502222904 | 15 | 1 | 1.6 | 4.8 | 0.00 | 0.03 | 0.03 | 86 | 1035.2 |
| 20260502222405 | 14 | 28 | 1.6 | 3.2 | 0.00 | 0.03 | 0.03 | 87 | 1035.1 |
| 20260502220905 | 14 | 4 | 4.8 | 8.0 | 0.00 | 0.03 | 0.03 | 89 | 1035.1 |
| 20260502215904 | 14 | 206 | 1.6 | 3.2 | 0.00 | 0.03 | 0.03 | 90 | 1035.1 |
| 20260502215404 | 13 | 154 | 0.0 | 1.6 | 0.00 | 0.03 | 0.03 | 91 | 1035.1 |
| 20260502214904 | 13 | 154 | 1.6 | 3.2 | 0.00 | 0.03 | 0.03 | 91 | 1035.1 |
| 20260502214406 | 13 | 154 | 1.6 | 1.6 | 0.00 | 0.03 | 0.03 | 91 | 1035.1 |
| 20260502213904 | 13 | 154 | 1.6 | 1.6 | 0.00 | 0.03 | 0.03 | 91 | 1035.2 |
| 20260502213404 | 12 | 154 | 0.0 | 1.6 | 0.00 | 0.03 | 0.03 | 91 | 1035.2 |
| 20260502212905 | 12 | 154 | 1.6 | 1.6 | 0.00 | 0.03 | 0.03 | 91 | 1035.1 |
| 20260502212404 | 12 | 154 | 0.0 | 1.6 | 0.00 | 0.03 | 0.03 | 91 | 1035.2 |
| 20260502211904 | 12 | 154 | 0.0 | 1.6 | 0.00 | 0.03 | 0.03 | 91 | 1035.1 |
| 20260502211404 | 12 | 154 | 0.0 | 1.6 | 0.00 | 0.03 | 0.03 | 91 | 1035.2 |
| 20260502210904 | 12 | 154 | 0.0 | 1.6 | 0.00 | 0.03 | 0.03 | 91 | 1035.2 |
| 20260502210404 | 12 | 154 | 0.0 | 1.6 | 0.00 | 0.03 | 0.03 | 91 | 1035.1 |
| 20260502205904 | 12 | 154 | 0.0 | 1.6 | 0.00 | 0.03 | 0.03 | 91 | 1035.1 |
| 20260502204903 | 11 | 154 | 0.0 | 0.0 | 0.00 | 0.03 | 0.03 | 91 | 1035.1 |
| 20260502204404 | 11 | 154 | 0.0 | 0.0 | 0.00 | 0.03 | 0.03 | 91 | 1035.1 |
| 20260502203904 | 10 | 154 | 0.0 | 0.0 | 0.00 | 0.03 | 0.03 | 91 | 1035.0 |
| 20260502203404 | 10 | 154 | 0.0 | 0.0 | 0.00 | 0.03 | 0.03 | 91 | 1035.0 |
| 20260502202904 | 10 | 154 | 0.0 | 0.0 | 0.00 | 0.03 | 0.03 | 91 | 1035.0 |
| 20260502202404 | 9 | 154 | 0.0 | 0.0 | 0.00 | 0.03 | 0.03 | 91 | 1034.9 |
| 20260502201906 | 9 | 154 | 0.0 | 0.0 | 0.00 | 0.03 | 0.03 | 91 | 1034.9 |
| 20260502201405 | 9 | 154 | 0.0 | 0.0 | 0.00 | 0.03 | 0.03 | 91 | 1034.9 |
| 20260502200904 | 9 | 154 | 0.0 | 0.0 | 0.00 | 0.03 | 0.03 | 91 | 1034.8 |